Location: Hamilton Branch State Park
(33.7552°N, 82.2209°W)
Time: 00:35:52
(UTC-04:00)

Hubble Space Telescope - Pass Details

Date: 22 September 2019
Orbit: 536 x 540 km, 28.5° (Epoch: 21 October)

Event Time Altitude Azimuth Distance (km) Brightness Sun altitude
Exits shadow 06:37:41 - 235° (SW) 1,888 3.0 -8.9°
Reaches altitude 10° 06:38:18 10° 228° (SW) 1,776 2.9 -8.8°
Maximum altitude 06:39:58 12° 203° (SSW) 1,639 3.0 -8.5°
Drops below altitude 10° 06:41:38 10° 179° (S) 1,774 3.4 -8.1°
Sets 06:45:08 0° 149° (SSE) 2,663 4.7 -7.4°
